Total_Precipitation_Accumulation
1.22 1.19 1.31 1.56 1.65 1.70 1.91 1.98 1.80 1.69 1.68 1.61 1.51 1.40 1.32 1.24 1.23 1.22 1.59 2.03 2.50 3.04 3.49 3.45 3.03 2.50 2.35 2.50 2.46 2.35 2.28 2.49 3.08 3.23 3.13 3.07 2.94 2.94 2.70 2.35 2.09 1.99 1.94
1.25 1.28 1.24 1.41 1.68 1.76 1.83 1.86 1.78 1.70 1.65 1.65 1.56 1.52 1.48 1.28 1.37 1.37 1.46 1.56 1.79 2.21 2.93 3.38 3.18 2.73 2.56 2.56 2.46 2.40 2.31 2.35 2.98 3.26 3.29 3.20 3.08 3.09 2.71 2.36 2.26 2.13 2.12
1.25 1.25 1.17 1.27 1.53 1.76 1.82 1.83 1.78 1.77 1.58 1.47 1.55 1.59 1.56 1.44 1.49 1.52 1.50 1.48 1.42 1.68 2.28 2.93 3.10 2.95 2.90 2.94 2.72 2.60 2.54 2.62 2.79 3.10 3.26 3.28 3.18 3.04 2.66 2.35 2.13 2.18 2.23
1.23 1.33 1.26 1.23 1.43 1.69 1.94 2.10 1.99 1.90 1.75 1.61 1.64 1.65 1.57 1.60 1.59 1.58 1.53 1.54 1.55 1.44 1.63 1.95 2.36 2.80 3.00 3.18 3.05 2.90 2.64 2.41 2.39 2.69 3.01 3.22 3.27 3.05 2.93 2.62 2.30 2.27 2.42
1.16 1.39 1.50 1.44 1.49 1.71 1.85 1.94 2.00 1.87 1.82 1.72 1.57 1.54 1.51 1.61 1.68 1.51 1.51 1.51 1.58 1.55 1.49 1.36 1.52 1.92 2.45 3.15 3.35 3.02 2.82 2.52 2.30 2.38 2.65 2.97 3.18 3.08 2.96 2.74 2.45 2.28 2.34
1.39 1.53 1.65 1.67 1.69 1.82 1.84 2.02 2.26 2.08 1.87 1.81 1.63 1.51 1.48 1.54 1.58 1.57 1.63 1.62 1.62 1.59 1.55 1.41 1.35 1.24 1.58 2.31 2.93 2.88 2.92 2.77 2.45 2.36 2.48 2.60 2.82 2.97 2.74 2.66 2.65 2.42 2.29
1.67 1.78 1.88 1.93 1.90 1.84 1.92 2.12 2.55 2.46 2.12 1.90 1.88 1.74 1.58 1.55 1.60 1.56 1.69 1.77 1.68 1.63 1.66 1.58 1.43 1.29 1.19 1.36 1.93 2.53 2.78 2.96 2.79 2.57 2.53 2.61 2.66 2.87 2.76 2.58 2.75 2.72 2.56
1.80 1.86 2.05 2.15 2.11 2.11 2.20 2.27 2.57 2.76 2.51 2.30 2.28 2.43 2.19 1.97 1.63 1.39 1.44 1.55 1.61 1.65 1.63 1.65 1.54 1.39 1.33 1.26 1.23 1.75 2.24 2.63 2.88 2.74 2.59 2.61 2.68 2.83 2.93 2.83 2.81 2.95 2.88
2.00 1.96 2.01 2.20 2.22 2.21 2.28 2.49 2.81 3.16 3.13 2.82 2.56 2.74 2.49 2.19 2.10 1.59 1.29 1.35 1.49 1.61 1.64 1.71 1.66 1.52 1.47 1.49 1.32 1.25 1.49 1.94 2.58 2.86 2.83 2.73 2.73 2.79 2.88 2.95 3.11 3.07 3.07
1.91 1.91 1.98 2.16 2.33 2.46 2.58 2.64 2.63 3.05 3.39 3.20 2.98 2.59 2.27 2.12 2.28 2.14 1.65 1.35 1.40 1.45 1.52 1.53 1.63 1.70 1.64 1.58 1.47 1.13 1.07 1.37 2.16 2.93 3.16 2.94 2.73 2.69 2.91 3.06 3.13 2.94 2.86
2.03 1.93 1.94 1.98 2.03 2.14 2.30 2.44 2.50 2.76 3.01 3.20 3.18 2.95 2.64 2.43 1.99 1.99 2.07 1.81 1.54 1.32 1.31 1.43 1.62 1.69 1.68 1.57 1.57 1.24 1.03 0.99 1.39 2.21 2.87 3.06 2.95 2.89 3.08 3.17 2.98 2.79 2.69
2.03 1.89 1.81 1.87 1.89 1.90 2.04 2.17 2.29 2.57 2.79 2.94 3.01 2.93 2.82 2.73 2.40 2.12 1.95 1.92 1.77 1.53 1.37 1.37 1.45 1.53 1.60 1.54 1.41 1.41 1.19 0.96 0.98 1.28 1.82 2.47 2.78 2.89 3.04 3.09 3.00 2.80 2.87
1.61 1.57 1.50 1.52 1.64 1.72 1.89 1.98 1.94 2.03 2.22 2.44 2.62 2.68 2.71 2.61 2.52 2.43 2.28 2.06 1.81 1.49 1.46 1.38 1.35 1.44 1.47 1.57 1.53 1.66 1.30 1.05 0.95 0.97 1.19 1.54 1.91 2.24 2.64 2.84 2.99 3.03 3.12
1.25 1.21 1.21 1.21 1.26 1.35 1.56 1.79 1.81 1.83 1.90 2.00 2.07 2.35 2.53 2.49 2.51 2.30 2.19 2.23 1.99 1.66 1.47 1.27 1.17 1.22 1.30 1.42 1.69 1.79 1.29 1.17 0.99 1.01 1.09 1.11 1.28 1.47 1.86 2.32 2.56 2.74 2.88
0.97 0.96 1.00 1.09 1.16 1.15 1.25 1.40 1.61 1.67 1.76 1.83 1.83 1.99 2.14 2.24 2.24 2.08 2.12 2.20 2.11 1.80 1.58 1.40 1.31 1.24 1.23 1.28 1.58 1.48 1.30 1.27 1.14 1.09 1.06 1.04 1.06 1.12 1.30 1.57 1.81 1.94 2.02
0.85 0.87 0.88 0.93 1.01 1.05 1.13 1.24 1.29 1.40 1.50 1.66 1.83 1.95 1.98 2.02 2.10 2.01 1.99 2.10 2.09 1.91 1.67 1.45 1.29 1.23 1.28 1.22 1.41 1.32 1.41 1.49 1.18 1.05 1.00 1.02 0.99 0.94 0.90 1.00 1.15 1.29 1.35
0.71 0.71 0.77 0.87 0.91 0.94 0.97 0.98 1.01 1.06 1.14 1.27 1.34 1.49 1.71 1.89 1.99 1.98 2.03 2.08 2.10 1.97 1.72 1.56 1.32 1.29 1.40 1.35 1.34 1.30 1.39 1.44 1.22 1.11 0.96 0.92 0.92 0.87 0.86 0.84 0.86 0.93 1.02
0.68 0.69 0.75 0.81 0.82 0.89 0.92 0.90 0.89 0.94 1.05 1.15 1.17 1.22 1.35 1.60 1.76 1.86 1.94 1.97 2.04 2.00 1.81 1.77 1.68 1.45 1.37 1.35 1.46 1.55 1.49 1.45 1.38 1.38 1.24 1.03 0.95 0.92 0.87 0.84 0.81 0.78 0.80
0.85 0.87 0.86 0.89 0.85 0.88 0.90 0.88 0.89 0.92 0.95 1.02 1.06 1.08 1.18 1.31 1.47 1.56 1.66 1.77 1.86 1.97 1.94 1.75 1.80 1.73 1.50 1.44 1.46 1.57 1.63 1.71 1.57 1.52 1.57 1.40 1.18 1.08 1.00 0.92 0.86 0.83 0.81
0.74 0.76 0.85 0.92 0.98 1.02 1.00 0.95 0.95 0.96 0.91 0.93 1.00 1.06 1.09 1.12 1.30 1.52 1.63 1.71 1.76 1.86 1.97 1.89 1.81 1.79 1.64 1.55 1.53 1.58 1.74 1.82 1.82 1.59 1.49 1.42 1.36 1.26 1.15 1.05 0.95 0.92 0.91
0.62 0.62 0.71 0.80 0.91 1.00 1.04 1.04 0.91 0.81 0.82 0.87 0.88 0.89 0.97 1.06 1.16 1.37 1.47 1.70 1.74 1.88 1.95 1.97 1.88 1.71 1.58 1.55 1.52 1.51 1.64 1.85 1.91 1.83 1.69 1.48 1.36 1.20 1.11 1.08 1.07 1.05 1.01
0.59 0.58 0.62 0.60 0.64 0.69 0.89 0.89 0.78 0.66 0.69 0.79 0.86 0.87 0.87 0.92 0.99 1.05 1.10 1.33 1.53 1.68 1.79 1.80 1.82 1.69 1.54 1.49 1.60 1.64 1.64 1.70 1.83 1.82 1.63 1.68 1.61 1.41 1.24 1.11 1.19 1.26 1.24
0.59 0.58 0.52 0.48 0.50 0.57 0.63 0.61 0.67 0.66 0.67 0.72 0.80 0.89 0.93 0.91 0.98 1.06 1.08 1.16 1.25 1.30 1.45 1.57 1.60 1.54 1.52 1.47 1.57 1.65 1.64 1.57 1.50 1.60 1.57 1.65 1.66 1.51 1.34 1.24 1.27 1.23 1.22
0.55 0.60 0.53 0.48 0.53 0.54 0.58 0.62 0.65 0.63 0.75 0.82 0.83 0.82 0.94 0.99 1.04 1.19 1.19 1.27 1.21 1.12 1.13 1.21 1.36 1.40 1.35 1.45 1.57 1.77 1.87 1.72 1.58 1.61 1.59 1.51 1.44 1.39 1.28 1.26 1.30 1.16 1.11
0.51 0.46 0.50 0.64 0.62 0.64 0.73 0.67 0.58 0.64 0.77 0.85 0.80 0.82 0.93 1.01 1.19 1.30 1.33 1.33 1.23 1.16 1.23 1.33 1.41 1.48 1.49 1.54 1.63 1.72 1.80 1.81 1.72 1.67 1.55 1.41 1.29 1.29 1.29 1.24 1.21 1.23 1.17
0.43 0.45 0.49 0.63 0.68 0.72 0.74 0.61 0.57 0.66 0.77 0.86 0.85 0.84 1.05 1.05 1.15 1.20 1.25 1.37 1.37 1.26 1.24 1.23 1.27 1.34 1.33 1.41 1.65 1.70 1.83 1.91 1.76 1.67 1.53 1.40 1.36 1.47 1.55 1.35 1.18 1.16 1.14